STARLINK-5699, 55449

Orbit data source: Space-Track

STARLINK-5699, 55449 is a payload satellite owned by SpaceX/Seattle (US) in LEO that was launched on Thu, 02 Feb 2023 UTC via an FALCON 9 launch vehicle from the Air Force Eastern Test Range (AFETR). Payload-class satellites include a variety of spacecraft equipped with specific instruments for various scientific and technological missions. These include communications satellites like Starlink; space stations such as the ISS; scientific satellites like the Hubble; Earth observation satellites from companies like Planet Labs, Umbra, and HawkEye 360; GPS; miniature CubeSats for education and research; and military/defense satellites.

Loading next visibility...
Identifier
55449, 2023-015A
Orbit
LEO
Country
Flag of USUS
Related business
Manufacturer
SpaceX/Seattle
Mission
Operational Commercial Communications
Bus & Motor
STARLINK, Unknown motor
Mass
305 kg wet, ~290 kg dry
Launch date (UTC)
2023-02-02 (3 years ago)
Launch vehicle
FALCON 9
Launch site
Air Force Eastern Test Range (AFETR)
Object type
Payload
Rocket body
Debris
Shape & HBR
Box + 1 Pan, 10.1 m
Radar Cross Section
13.562 m², Large (>1 m²)

Expand to show TLE details & history
Last TLE update: 8 hours ago

TLE from 8 hours ago
0 STARLINK-5699
1 55449U 23015A   25352.55149445 -.00001145  00000-0 -69704-4 0  9995
2 55449  43.0027  47.3087 0000961 266.5612  93.5120 15.02534954159483
Epoch: 2025-12-18T13:14Z
TLE epoch observation values (Epoch: 2025-12-18T13:14:09.120Z)
Latitude
-0.00005°
Longitude
121.36527°
Altitude
558.902 km
Speed
7.584 km/s
True Right ascension
03h 09m 14s
True Declination
0° 00' 00"
Sunlit
Object was in full shadow at epoch
Visualization orbit readout
Latitude
Unknown
Longitude
Unknown
Altitude
Unknown
Speed
Unknown
Apparent Right ascension
Unknown
Apparent Declination
Unknown
Sunlit
N/A
Visualization observer readout
Local Sidereal Time
20:06:37
Azimuth
Unknown
Elevation
Unknown
Doppler factor
Unknown
Orbital elements
Apogee altitude
561.673 km
Perigee altitude
560.339 km
Semi-major axis
6,939.143 km
Eccentricity
0.0001
Inclination
43.0027°
RAAN
47.3087°
Arg. of periapsis
266.5612°
True anomaly
93.52299°
Mean anomaly
93.512°
Eccentric anomaly
93.5175°
Mean motion
3.75478 °/min
Orbital period
95.88 mins
BSTAR
-0.000069704
Loading maneuver chart data...
Computing Atmospheric mass density...
Loading historical data...
Loading historical data...
Loading historical data...
Loading historical data...
Loading historical data...
Loading historical data...
Loading historical data...

Documentation

Showing up to 5 results
|